Погода в Пику

Португалия     38°30′57″N   28°18′35″W
темп.,
°C
ветер,
м/с
пор.,
м/с
влажн.,
%
обл.,
%
осадки,
мм/ч
давл.,
гПа
погр.,
м
23 апреля, пт
пт2300:00+11зсз15207915 0.7 10081573
03:00+11зсз14207817 0.3 10081507
06:00+12зсз14197935 0.5 10081500
09:00+12сз14198438 0.3 10101416
12:00+13сз14208031 0.9 10111503
15:00+13сз15207520 0.3 10121622
18:00+13сз15197714 0.6 10121482
21:00+13сз13188233 0.2 10141470
24 апреля, сб
сб2400:00+12сз13168232 0.5 10141391
03:00+12сз13168261 0.3 10141447
06:00+12сз13178047 0.7 10141463
09:00+13сз12167741 0.2 10151311
12:00+13сз11137493 0.3 10161286
15:00+13сз10127377 0.0 10151214
18:00+13сз10137833 0.1 10151119
21:00+13сз10128181 0.1 10161038
25 апреля, вс
вс2500:00+13сз9117979 0.1 10161055
03:00+13сз9108136 0.1 1015918
06:00+13сз8107895 0.1 1015855
09:00+13сз897998 0.0 1016636
12:00+14сз777888 0.0 1016522
15:00+15сз66749 0.0 1015488
18:00+15ссз557584 0.0 1015448
21:00+14ссз448160 0.0 1015342
26 апреля, пн
пн2600:00+14сз3381100 0.0 1015275
03:00+14ссз2283100 0.0 1014237
06:00+14св1190100 1.1 1014162
09:00+14всв2288100 0.4 1014320
12:00+14в3387100 0.8 1015322
15:00+14вюв3482100 0.1 1014443
18:00+14вюв458899 0.1 1014381
21:00+14всв448970 0.1 1015408
27 апреля, вт
вт2700:00+14св459056 0.1 1016432
03:00+14всв669272 0.2 1016524
06:00+13св5689100 0.4 1016515
09:00+14св568696 0.3 1018496
12:00+14ссв458029 0.4 1018528
15:00+14св668691 0.6 1018656
18:00+14ссв4681100 0.8 1018618
21:00+14ссв6782100 0.2 1019612